Flag for United Kingdom Weather past 2 weeks in Liverpool, England, United Kingdom

Now
52 °F

Passing clouds.


Feels Like: 48 °F
Forecast: 50 / 54 °F
Wind: 12 mph from West

Location: Liverpool Airport

Current Time: May 4, 2015 at 9:02:21 AM

Latest Report: May 4, 2015 at 8:20 AM


Visibility: N/A

Pressure: 29.56 "Hg

Humidity: 77%

Dew point: 45 °F

Location of LiverpoolLocation

Historic Weather in Liverpool — Graph

°F

Liverpool temperature yesterday

Maximum temperature yesterday: 61 °F (at 12:50 PM)
Minimum temperature yesterday: 46 °F (at 12:20 AM)
Average temperature yesterday: 53 °F

Past Weeks' High & Low Weather Summary

 TemperatureHumidityPressure
High64 °F (Apr 22, 2:20 PM)100% (Apr 20, 5:50 AM)30.60 "Hg (Apr 20, 5:50 AM)
Low37 °F (Apr 20, 5:50 AM)38% (May 1, 4:20 PM)29.27 "Hg (May 3, 10:20 AM)
Average49 °F73%29.95 "Hg
* Reported Apr 19 7:20 AM — May 4 7:50 AM, Liverpool, Weather by CustomWeather, © 2015

Note: Actual official high and low records may vary slightly from our data, if they occured in-between our weather recording intervals... More about our weather records

Advertising

Liverpool weather history for previous 24 hours

 ConditionsComfort  
Time TempWeatherWind HumidityBarometerVisibility
7:50 AM
Mon, May 4
50 °FPassing clouds.9 mph82%29.56 "HgN/A
7:20 AM50 °FPassing clouds.13 mph82%29.53 "HgN/A
6:50 AM48 °FPassing clouds.9 mph87%29.53 "HgN/A
6:20 AM48 °FPassing clouds.8 mph87%29.53 "HgN/A
5:50 AM48 °FPassing clouds.12 mph87%29.50 "HgN/A
5:20 AM48 °FPassing clouds.8 mph82%29.50 "HgN/A
4:50 AM48 °FScattered showers. Passing clouds.12 mph87%29.50 "HgN/A
4:20 AM50 °FLight rain. Passing clouds.10 mph88%29.47 "Hg5 mi
3:50 AM50 °FLight rain. Passing clouds.9 mph100%29.47 "Hg5 mi
3:20 AM50 °FLight rain. Passing clouds.13 mph100%29.45 "Hg5 mi
2:50 AM54 °FLight rain. Passing clouds.14 mph94%29.45 "Hg5 mi
2:20 AM54 °FLight rain. Passing clouds.13 mph94%29.42 "Hg5 mi
1:50 AM54 °FLight rain. Passing clouds.13 mph94%29.42 "Hg5 mi
1:20 AM54 °FLight rain. Passing clouds.16 mph94%29.42 "Hg6 mi
12:50 AM55 °FScattered showers. Passing clouds.7 mph88%29.39 "HgN/A
12:20 AM54 °FScattered showers. Passing clouds.6 mph94%29.39 "HgN/A
11:50 PM
Sun, May 3
54 °FScattered showers. Passing clouds.9 mph94%29.39 "HgN/A
11:20 PM54 °FLight rain. Passing clouds.10 mph94%29.39 "Hg5 mi
10:50 PM55 °FPassing clouds.12 mph88%29.39 "HgN/A
10:20 PM54 °FPassing clouds.12 mph88%29.36 "HgN/A
9:20 PM55 °FScattered clouds.15 mph82%29.36 "HgN/A
8:50 PM55 °FScattered clouds.14 mph82%29.36 "HgN/A
8:20 PM57 °FScattered clouds.10 mph77%29.36 "HgN/A
7:50 PM57 °FScattered clouds.12 mph77%29.36 "HgN/A
7:20 PM57 °FScattered clouds.14 mph77%29.36 "HgN/A
6:50 PM57 °FScattered clouds.15 mph77%29.33 "HgN/A
6:20 PM57 °FScattered clouds.15 mph72%29.33 "HgN/A
5:50 PM59 °FScattered clouds.17 mph72%29.33 "HgN/A
5:20 PM59 °FScattered clouds.18 mph68%29.33 "HgN/A
4:50 PM59 °FScattered clouds.22 mph72%29.33 "HgN/A
4:20 PM61 °FScattered clouds.18 mph72%29.33 "HgN/A
3:50 PM59 °FScattered clouds.18 mph77%29.33 "HgN/A
3:20 PM61 °FScattered clouds.17 mph77%29.33 "HgN/A
2:50 PM59 °FScattered showers. Scattered clouds.12 mph82%29.30 "HgN/A
2:20 PM59 °FScattered clouds.15 mph82%29.30 "HgN/A
1:50 PM61 °FScattered clouds.16 mph77%29.30 "HgN/A
1:20 PM61 °FScattered clouds.15 mph83%29.30 "HgN/A
12:50 PM61 °FScattered clouds.7 mph83%29.30 "HgN/A
12:20 PM59 °FScattered clouds.10 mph82%29.30 "HgN/A
11:50 AM57 °FScattered clouds.9 mph88%29.30 "HgN/A
11:20 AM55 °FScattered clouds.7 mph94%29.30 "HgN/A
10:50 AM55 °FBroken clouds.8 mph94%29.30 "HgN/A
10:20 AM54 °FPartly sunny.8 mph94%29.27 "HgN/A
9:50 AM52 °FLight rain. Partly sunny.7 mph100%29.30 "Hg6 mi
9:20 AM50 °FLight rain. Partly sunny.6 mph100%29.30 "HgN/A
Weather by CustomWeather, © 2015

See weather overviewHow to use our weather pages